When you browse on this site, cookies collect data to enhance your experience and personalize the content and advertising you see.
Visit our Privacy Policy to learn more. By continuing to use the site, you agree to this use of cookies and data.
  • In United Kingdom
  • List of Countries
  • For 7 days
  • Water Temperature
  • Weather Map
  • Weather Widgets
  • user-avatar
    Login

    Hourly Weather Nashavar

    Today, 15 September, Sunday

    Time Temperature Precipitation Wind Pressure Humidity
    00:00 +33°C° 0 mm 1 mps 726 mmHg 54%
    01:00 +32°C° 0 mm 1 mps 726 mmHg 55%
    02:00 +32°C° 0 mm 1 mps 725 mmHg 56%
    03:00 +31°C° 0.1 mm 1 mps 725 mmHg 58%
    04:00 +31°C° 0.1 mm 2 mps 725 mmHg 59%
    05:00 +30°C° 0 mm 2 mps 725 mmHg 62%
    06:00 +30°C° 0.2 mm 2 mps 726 mmHg 61%
    07:00 +30°C° 0.2 mm 1 mps 726 mmHg 59%
    08:00 +30°C° 0.2 mm 1 mps 726 mmHg 58%
    09:00 +31°C° 0 mm 2 mps 726 mmHg 54%
    10:00 +34°C° 0 mm 2 mps 726 mmHg 51%
    11:00 +35°C° 0 mm 2 mps 726 mmHg 46%
    12:00 +36°C° 0.1 mm 2 mps 726 mmHg 44%
    13:00 +36°C° 0.1 mm 1 mps 725 mmHg 42%
    14:00 +37°C° 0.1 mm 1 mps 724 mmHg 39%
    15:00 +38°C° 0 mm 2 mps 724 mmHg 39%
    16:00 +38°C° 0 mm 3 mps 724 mmHg 39%
    17:00 +38°C° 0 mm 3 mps 724 mmHg 39%
    18:00 +37°C° 0 mm 2 mps 724 mmHg 43%
    19:00 +36°C° 0 mm 2 mps 724 mmHg 47%
    20:00 +35°C° 0 mm 2 mps 724 mmHg 50%
    21:00 +33°C° 0 mm 1 mps 724 mmHg 52%
    22:00 +33°C° 0 mm 1 mps 725 mmHg 53%
    23:00 +32°C° 0 mm 1 mps 725 mmHg 54%

    Tomorrow, 16 September, Monday

    Time Temperature Precipitation Wind Pressure Humidity
    00:00 +32°C° 0.1 mm 1 mps 724 mmHg 56%
    01:00 +31°C° 0.1 mm 1 mps 724 mmHg 58%
    02:00 +31°C° 0.1 mm 1 mps 724 mmHg 60%
    03:00 +30°C° 0.3 mm 1 mps 724 mmHg 62%
    04:00 +30°C° 0.3 mm 1 mps 724 mmHg 64%
    05:00 +27°C° 0.3 mm 0 mps 724 mmHg 65%
    06:00 +30°C° 0.2 mm 1 mps 724 mmHg 62%
    07:00 +30°C° 0.2 mm 1 mps 725 mmHg 59%
    08:00 +31°C° 0.2 mm 1 mps 725 mmHg 55%
    09:00 +32°C° 0 mm 1 mps 725 mmHg 48%
    10:00 +34°C° 0 mm 1 mps 725 mmHg 42%
    11:00 +36°C° 0 mm 2 mps 725 mmHg 35%
    12:00 +37°C° 0 mm 2 mps 724 mmHg 29%
    13:00 +38°C° 0 mm 2 mps 724 mmHg 23%
    14:00 +40°C° 0 mm 1 mps 723 mmHg 17%
    15:00 +39°C° 0 mm 2 mps 723 mmHg 18%
    16:00 +39°C° 0 mm 2 mps 723 mmHg 18%
    17:00 +39°C° 0 mm 3 mps 722 mmHg 19%
    18:00 +37°C° 0 mm 2 mps 722 mmHg 27%
    19:00 +36°C° 0 mm 2 mps 723 mmHg 35%
    20:00 +33°C° 0 mm 1 mps 723 mmHg 43%
    21:00 +32°C° 0 mm 1 mps 723 mmHg 46%
    22:00 +32°C° 0 mm 1 mps 723 mmHg 49%
    23:00 +31°C° 0 mm 1 mps 723 mmHg 51%

    Day after tomorrow, 17 September, Tuesday

    Time Temperature Precipitation Wind Pressure Humidity
    00:00 +31°C° 0 mm 1 mps 723 mmHg 52%
    01:00 +31°C° 0 mm 1 mps 723 mmHg 52%
    02:00 +29°C° 0 mm 0 mps 723 mmHg 52%
    03:00 +30°C° 0 mm 1 mps 723 mmHg 50%
    04:00 +30°C° 0 mm 1 mps 724 mmHg 48%
    05:00 +29°C° 0 mm 1 mps 724 mmHg 46%
    06:00 +30°C° 0 mm 1 mps 724 mmHg 41%
    07:00 +31°C° 0 mm 1 mps 725 mmHg 36%
    08:00 +32°C° 0 mm 2 mps 725 mmHg 30%
    09:00 +34°C° 0 mm 2 mps 726 mmHg 24%
    10:00 +36°C° 0 mm 2 mps 726 mmHg 18%
    11:00 +37°C° 0 mm 2 mps 726 mmHg 12%
    12:00 +37°C° 0 mm 1 mps 726 mmHg 12%
    13:00 +39°C° 0 mm 1 mps 725 mmHg 11%
    14:00 +37°C° 0 mm 0 mps 725 mmHg 10%
    15:00 +40°C° 0 mm 1 mps 725 mmHg 11%
    16:00 +39°C° 0 mm 1 mps 725 mmHg 13%
    17:00 +39°C° 0 mm 1 mps 724 mmHg 14%
    18:00 +37°C° 0 mm 1 mps 725 mmHg 18%
    19:00 +35°C° 0 mm 1 mps 725 mmHg 22%
    20:00 +34°C° 0 mm 1 mps 725 mmHg 26%
    21:00 +33°C° 0 mm 1 mps 725 mmHg 29%
    22:00 +32°C° 0 mm 1 mps 725 mmHg 32%
    23:00 +32°C° 0 mm 1 mps 725 mmHg 34%

    18 September, Wednesday

    Time Temperature Precipitation Wind Pressure Humidity
    00:00 +31°C° 0 mm 1 mps 725 mmHg 36%
    01:00 +31°C° 0 mm 1 mps 725 mmHg 39%
    02:00 +28°C° 0 mm 0 mps 725 mmHg 41%
    03:00 +28°C° 0 mm 0 mps 726 mmHg 43%
    04:00 +29°C° 0 mm 1 mps 726 mmHg 44%
    05:00 +29°C° 0 mm 1 mps 726 mmHg 46%
    06:00 +30°C° 0 mm 1 mps 727 mmHg 43%
    07:00 +31°C° 0 mm 1 mps 727 mmHg 41%
    08:00 +32°C° 0 mm 1 mps 728 mmHg 38%
    09:00 +33°C° 0 mm 1 mps 728 mmHg 35%
    10:00 +34°C° 0 mm 1 mps 728 mmHg 33%
    11:00 +37°C° 0 mm 2 mps 728 mmHg 30%
    12:00 +37°C° 0 mm 2 mps 728 mmHg 28%
    13:00 +38°C° 0 mm 2 mps 727 mmHg 26%
    14:00 +39°C° 0 mm 1 mps 727 mmHg 24%
    15:00 +39°C° 0 mm 2 mps 726 mmHg 25%
    16:00 +39°C° 0 mm 2 mps 726 mmHg 25%
    17:00 +39°C° 0 mm 2 mps 726 mmHg 25%
    18:00 +38°C° 0 mm 2 mps 726 mmHg 29%
    19:00 +36°C° 0 mm 2 mps 726 mmHg 32%
    20:00 +34°C° 0 mm 1 mps 726 mmHg 35%
    21:00 +33°C° 0 mm 1 mps 726 mmHg 37%
    22:00 +33°C° 0 mm 1 mps 726 mmHg 39%
    23:00 +30°C° 0 mm 0 mps 726 mmHg 41%

    19 September, Thursday

    Time Temperature Precipitation Wind Pressure Humidity
    00:00 +31°C° 0 mm 1 mps 726 mmHg 41%
    01:00 +31°C° 0 mm 1 mps 726 mmHg 42%
    02:00 +30°C° 0 mm 1 mps 726 mmHg 43%
    03:00 +30°C° 0 mm 1 mps 726 mmHg 44%
    04:00 +29°C° 0 mm 1 mps 726 mmHg 45%
    05:00 +29°C° 0 mm 1 mps 727 mmHg 45%
    06:00 +29°C° 0 mm 1 mps 727 mmHg 44%
    07:00 +30°C° 0 mm 1 mps 727 mmHg 42%
    08:00 +31°C° 0 mm 2 mps 728 mmHg 40%
    09:00 +32°C° 0 mm 2 mps 728 mmHg 39%
    10:00 +34°C° 0 mm 2 mps 728 mmHg 38%
    11:00 +35°C° 0 mm 2 mps 728 mmHg 36%
    12:00 +36°C° 0 mm 2 mps 728 mmHg 34%
    13:00 +36°C° 0 mm 1 mps 727 mmHg 33%
    14:00 +37°C° 0 mm 1 mps 727 mmHg 31%
    15:00 +37°C° 0 mm 1 mps 727 mmHg 31%
    16:00 +37°C° 0 mm 1 mps 726 mmHg 30%
    17:00 +38°C° 0 mm 2 mps 726 mmHg 30%
    18:00 +37°C° 0 mm 2 mps 726 mmHg 34%
    19:00 +36°C° 0 mm 2 mps 727 mmHg 39%
    20:00 +35°C° 0 mm 2 mps 727 mmHg 43%
    21:00 +33°C° 0 mm 1 mps 727 mmHg 45%
    22:00 +33°C° 0 mm 1 mps 727 mmHg 47%
    23:00 +32°C° 0 mm 1 mps 727 mmHg 49%

    20 September, Friday

    Time Temperature Precipitation Wind Pressure Humidity
    00:00 +32°C° 0 mm 1 mps 727 mmHg 50%
    01:00 +32°C° 0 mm 1 mps 727 mmHg 51%
    02:00 +29°C° 0 mm 0 mps 727 mmHg 51%
    03:00 +31°C° 0 mm 1 mps 727 mmHg 53%
    04:00 +30°C° 0 mm 1 mps 727 mmHg 54%
    05:00 +30°C° 0 mm 1 mps 727 mmHg 55%
    06:00 +30°C° 0 mm 1 mps 727 mmHg 54%
    07:00 +30°C° 0 mm 1 mps 727 mmHg 53%
    08:00 +31°C° 0 mm 1 mps 728 mmHg 52%
    09:00 +32°C° 0 mm 2 mps 728 mmHg 49%
    10:00 +34°C° 0 mm 2 mps 728 mmHg 47%
    11:00 +35°C° 0 mm 2 mps 728 mmHg 44%
    12:00 +36°C° 0 mm 2 mps 727 mmHg 40%
    13:00 +37°C° 0 mm 2 mps 726 mmHg 36%
    14:00 +37°C° 0 mm 1 mps 726 mmHg 32%
    15:00 +39°C° 0 mm 2 mps 726 mmHg 32%
    16:00 +39°C° 0 mm 2 mps 725 mmHg 32%
    17:00 +39°C° 0 mm 2 mps 725 mmHg 32%
    18:00 +37°C° 0 mm 2 mps 725 mmHg 35%
    19:00 +36°C° 0 mm 2 mps 726 mmHg 38%
    20:00 +35°C° 0 mm 2 mps 726 mmHg 41%
    21:00 +34°C° 0 mm 2 mps 726 mmHg 43%
    22:00 +33°C° 0 mm 1 mps 726 mmHg 45%
    23:00 +32°C° 0 mm 1 mps 726 mmHg 48%
    Show more